Temperature
17 17 17 16 16 16 16 16 16 15 15 15 15 15 15 15 14 14 14 14 13 13 13 13 13 13 13 13 13 13 13 12 12 12 12 12 12 12 12 12 12 12 11
16 16 16 16 16 16 15 15 15 15 15 15 15 14 14 14 14 14 14 13 13 13 13 13 13 13 13 12 12 12 12 12 12 12 12 12 12 12 12 12 12 11 11
16 15 15 16 15 15 15 14 14 14 14 14 14 14 14 14 14 14 13 13 13 13 12 12 12 12 12 12 12 12 12 12 12 12 12 12 12 12 12 12 11 11 11
15 15 15 15 15 14 14 14 14 13 13 13 13 13 13 13 13 13 13 13 12 12 12 12 12 12 12 11 11 11 11 11 11 11 11 11 11 11 11 11 11 11 11
15 15 15 15 14 14 14 13 13 13 13 13 12 12 12 12 12 12 13 12 12 12 12 12 12 11 11 11 10 10 11 11 11 11 11 11 11 11 11 11 10 10 10
15 14 14 14 14 13 13 13 13 13 12 12 12 12 12 12 12 12 12 12 12 12 11 11 11 11 11 10 10 10 10 10 10 10 10 10 10 10 10 10 10 10 9
14 14 14 14 14 13 13 13 13 13 12 12 12 12 12 11 11 11 11 11 11 11 11 11 11 11 10 10 10 9 9 9 9 9 9 9 9 9 9 9 9 9 8
14 14 14 14 13 13 13 13 13 13 13 12 12 12 11 11 12 11 11 11 11 11 11 11 10 10 10 10 9 9 9 8 8 8 8 8 8 8 8 8 8 7 7
14 14 13 13 13 13 13 13 13 13 12 12 12 12 11 11 12 12 12 12 11 11 11 10 10 10 9 9 9 8 8 8 7 7 7 7 7 7 7 7 6 6 6
14 13 13 13 13 13 13 12 12 12 12 12 12 12 11 11 11 11 12 12 11 11 11 10 10 9 9 8 8 8 7 7 7 6 5 5 5 5 5 5 5 5 5
13 13 13 13 12 12 12 12 12 12 12 12 12 11 11 11 10 10 10 11 11 11 11 10 10 9 9 8 8 7 7 6 6 5 5 4 4 4 4 4 4 4 5
13 13 12 12 12 12 12 12 12 12 11 11 11 11 11 10 10 10 10 10 10 10 10 10 10 9 9 8 7 6 6 5 5 4 4 4 3 3 3 4 4 4 4
11 12 12 12 11 11 11 11 11 11 11 11 11 10 10 10 10 10 10 9 9 9 9 9 9 9 8 8 7 6 5 4 4 3 3 3 3 3 3 3 3 3 3
10 10 10 11 11 11 11 10 10 10 10 10 10 10 10 10 9 9 9 9 8 8 8 8 8 8 8 7 6 5 4 4 3 3 3 2 2 2 3 3 3 3 3
9 9 9 9 10 10 10 10 10 10 10 10 10 9 9 9 9 8 8 8 7 7 7 7 7 7 6 6 5 5 4 3 3 3 3 2 2 2 2 2 2 2 2
8 8 9 9 9 9 9 9 9 9 9 9 9 9 9 8 8 8 7 7 7 6 6 6 6 6 6 5 4 4 3 3 2 2 2 1 1 1 1 1 1 1 1
7 8 8 8 8 8 8 8 8 8 8 8 8 8 8 7 7 7 7 6 6 6 5 5 5 5 4 4 3 3 2 2 2 1 1 1 1 0 0 0 -0 -0 -0
6 6 7 7 7 7 7 7 7 8 7 7 7 7 7 7 6 6 6 5 5 5 5 4 4 4 3 3 2 2 2 1 1 1 1 0 -0 -0 -1 -1 -1 -1 -1
5 6 6 6 6 6 6 6 6 6 6 6 6 6 6 5 5 5 5 5 4 4 3 3 3 3 2 2 1 1 1 1 1 0 -0 -1 -1 -1 -2 -2 -2 -2 -3
5 5 5 5 5 5 5 5 5 5 5 5 5 5 4 4 4 4 3 3 3 3 2 2 2 2 1 1 1 1 0 0 -0 -1 -1 -1 -2 -2 -3 -3 -3 -3 -3
4 4 4 4 4 5 4 4 4 4 4 3 3 3 3 2 2 2 2 2 1 1 1 1 1 1 1 0 0 -0 -1 -1 -2 -2 -2 -3 -3 -3 -3 -3 -3 -3 -3
3 3 3 3 3 3 3 3 3 3 2 2 2 1 1 1 1 0 0 0 0 0 0 0 -0 -0 -1 -1 -1 -2 -2 -3 -3 -4 -4 -3 -4 -4 -3 -4 -4 -4 -3
2 2 2 2 2 2 2 2 1 1 1 1 0 0 -0 -0 -0 -0 -0 -0 -0 -1 -1 -1 -1 -2 -2 -3 -3 -4 -4 -4 -5 -5 -5 -4 -4 -4 -4 -4 -4 -4 -4
1 1 1 1 1 1 1 1 1 0 0 0 -0 -0 -1 -1 -1 -1 -1 -1 -2 -2 -2 -2 -3 -3 -4 -4 -5 -5 -5 -6 -6 -6 -6 -5 -4 -4 -4 -4 -4 -4 -4
1 1 1 1 1 1 0 0 -0 -0 -1 -1 -1 -1 -2 -2 -2 -2 -2 -3 -3 -3 -4 -4 -5 -5 -5 -6 -6 -6 -6 -7 -6 -6 -6 -6 -5 -4 -3 -3 -3 -3 -4
1 0 0 0 -0 -0 -1 -1 -1 -1 -2 -2 -2 -3 -3 -3 -4 -4 -4 -4 -4 -5 -5 -5 -6 -6 -6 -6 -7 -7 -7 -7 -7 -7 -6 -7 -6 -6 -5 -3 -4 -4 -4
Wind_Speed
8 10 10 12 13 13 12 10 10 9 9 10 10 9 7 9 12 13 14 16 15 14 13 12 11 11 11 10 10 10 10 10 10 10 10 10 10 10 10 10 10 10 10
11 10 10 11 13 14 14 13 12 9 8 9 8 10 9 11 13 14 15 16 17 16 15 14 13 13 12 12 11 11 11 10 10 10 10 9 9 9 9 9 9 9 9
14 12 9 9 13 15 15 12 11 10 7 6 6 8 9 11 13 15 16 16 17 18 17 16 15 15 14 14 13 12 12 11 10 10 9 9 8 8 8 8 7 7 7
17 14 8 8 14 14 12 7 6 6 7 6 6 5 6 8 11 14 16 17 17 17 18 18 17 17 16 16 15 14 13 12 11 11 10 9 8 8 7 7 6 5 5
16 14 9 10 13 10 8 8 8 6 7 7 6 6 5 5 7 12 12 16 18 18 19 19 19 19 18 17 16 15 14 13 13 12 11 10 9 8 7 6 5 4 3
14 13 9 9 10 6 7 7 8 7 6 6 6 6 6 5 5 6 10 14 16 19 20 19 19 19 19 19 18 17 16 15 14 13 12 11 10 8 7 6 5 4 3
13 11 7 7 7 9 10 9 8 8 7 4 4 3 4 4 6 6 7 8 12 17 19 20 19 19 18 20 19 18 17 16 15 14 13 12 11 10 8 7 6 5 5
13 11 8 8 8 8 9 10 9 6 6 6 5 3 4 4 6 7 7 9 9 12 15 18 19 20 19 19 19 20 19 17 16 15 14 13 12 11 10 9 8 7 6
11 11 10 8 8 9 9 10 10 10 9 7 6 6 5 8 5 4 7 9 9 8 9 14 17 19 21 20 20 20 19 18 17 16 15 14 12 12 11 10 9 8 8
8 10 10 9 9 8 9 10 10 10 10 8 6 6 5 4 5 4 4 5 7 9 10 9 14 18 20 20 21 21 20 18 18 16 15 14 13 12 11 10 10 9 9
5 7 8 7 9 8 9 10 9 10 10 10 8 5 6 4 4 5 6 4 4 7 9 10 11 16 20 21 20 21 21 20 19 17 16 15 14 12 11 11 10 10 10
4 5 5 5 6 7 8 9 9 10 10 11 9 7 6 5 7 8 11 8 6 5 6 8 9 12 17 20 21 22 22 21 19 17 16 14 13 12 11 10 10 11 12
4 6 5 5 5 6 7 7 8 9 10 10 11 10 10 10 5 6 9 7 6 4 3 4 6 10 15 17 19 23 22 21 18 16 15 14 12 10 9 10 11 12 13
4 6 6 5 5 5 5 5 5 6 6 8 10 10 9 10 8 7 6 6 5 4 3 4 1 4 9 14 17 22 20 20 18 16 15 13 11 8 8 11 13 14 15
5 6 6 6 5 5 5 4 3 4 4 5 6 7 7 6 6 7 6 6 7 6 7 5 3 1 4 10 17 17 17 20 19 18 16 13 10 10 10 13 15 16 16
6 7 7 7 7 7 6 4 3 3 2 2 2 2 2 1 1 2 3 4 5 6 5 3 2 1 3 7 14 14 15 19 19 18 16 14 13 13 14 16 17 17 18
7 7 7 7 8 8 8 7 6 6 5 5 4 3 4 3 2 1 1 1 2 3 5 1 2 1 2 5 7 9 11 11 11 14 14 14 14 14 16 17 17 17 18
8 8 8 8 9 9 9 8 8 8 7 7 7 6 5 4 4 3 2 2 1 1 1 2 2 2 2 4 4 5 6 7 6 9 11 13 14 15 16 17 17 17 18
8 8 9 10 10 9 9 9 9 9 9 8 7 7 6 5 5 4 4 3 2 2 2 2 2 2 1 2 3 3 3 3 4 6 9 12 13 14 15 16 16 17 17
8 9 9 9 9 9 9 9 9 9 9 9 9 8 7 6 5 4 4 4 4 3 3 3 2 2 2 2 2 2 2 1 2 3 6 8 11 13 14 15 15 16 16
9 9 9 10 9 8 9 9 9 9 9 9 10 9 9 9 8 6 4 4 4 4 3 3 2 2 2 2 2 2 2 1 1 2 2 4 5 7 11 14 15 16 16
8 9 10 10 10 9 13 14 11 9 9 9 8 8 9 10 11 12 11 9 7 5 4 2 2 2 2 2 2 1 2 1 1 1 1 3 4 6 10 13 15 16 16
8 9 9 9 9 11 15 15 14 9 8 8 7 7 7 8 9 7 9 11 11 11 8 3 3 2 1 1 2 2 2 2 3 2 1 4 3 6 9 13 15 16 15
7 7 7 7 7 9 13 13 12 8 7 7 6 6 6 6 5 6 6 6 6 6 5 3 2 1 2 2 3 3 3 2 3 3 3 3 3 4 5 11 15 14 13
5 5 4 6 6 6 10 11 9 5 5 6 5 5 4 5 8 8 6 5 5 5 7 7 4 3 3 4 4 2 2 1 3 3 3 3 3 3 4 4 7 6 6
4 3 4 4 4 4 7 9 8 3 4 4 4 5 7 6 7 7 4 3 3 3 4 5 6 7 6 7 7 1 4 3 2 3 2 2 2 3 4 3 3 6 9
Wind_Direction
196 199 204 205 205 204 204 209 217 225 233 242 245 240 220 200 193 189 189 185 180 180 181 181 178 175 171 166 161 155 149 143 138 132 125 119 114 108 102 96 92 88 85
201 197 203 206 209 210 210 212 216 222 228 229 233 231 219 204 200 196 195 193 189 187 188 190 190 187 183 179 174 168 163 158 152 146 139 133 127 120 112 105 98 92 87
209 201 202 208 211 212 213 214 219 223 229 227 228 226 216 205 202 202 200 198 196 195 195 198 198 196 193 190 185 180 175 170 166 160 154 148 143 136 128 120 110 101 93
213 208 209 212 210 209 210 210 212 216 224 223 225 225 215 207 206 207 205 204 201 200 201 204 204 203 201 198 194 189 185 181 178 174 168 163 160 155 148 139 130 119 106
216 213 218 219 210 208 210 213 213 207 216 221 222 226 221 212 208 210 210 209 207 204 203 207 208 207 206 205 203 198 194 191 189 186 182 178 176 174 169 164 158 151 139
220 217 223 224 213 212 217 214 213 209 212 211 216 224 229 229 218 213 212 213 213 211 207 207 207 207 206 208 209 206 202 199 198 196 195 193 191 190 190 190 190 191 191
225 220 224 222 217 224 226 219 215 214 219 187 186 240 269 246 236 229 216 213 215 214 211 209 205 202 204 209 212 212 209 207 206 204 203 203 202 203 206 210 213 218 225
235 231 224 228 222 226 229 225 217 218 215 185 182 193 259 283 253 230 214 218 218 213 213 211 206 202 201 203 209 213 214 213 211 210 209 211 213 215 219 224 227 233 241
250 242 237 233 230 225 231 228 219 219 225 210 196 179 195 231 252 263 230 224 215 211 213 210 208 206 204 204 206 210 213 217 217 216 215 217 219 223 225 229 236 244 251
269 259 251 244 241 235 233 232 225 221 220 219 215 223 216 185 197 255 263 234 219 216 212 210 209 209 207 205 205 206 208 211 218 222 223 224 225 229 233 237 244 252 259
290 279 267 256 251 247 242 238 232 225 222 223 210 202 220 227 217 220 255 251 238 225 214 211 208 209 208 205 203 203 204 208 218 224 229 231 232 235 239 245 252 261 266
302 301 294 275 264 258 252 247 242 234 231 229 223 207 199 200 207 214 236 238 235 233 219 213 211 208 206 203 201 199 201 208 217 224 231 235 239 243 250 258 264 270 274
312 310 306 294 283 271 265 258 252 247 239 235 231 227 224 228 217 214 229 238 236 235 229 224 217 206 203 198 197 193 198 204 212 221 230 240 246 253 265 273 276 279 280
307 313 313 307 298 294 287 277 265 259 252 246 242 237 234 234 227 220 218 220 234 241 239 241 268 215 196 187 187 183 191 197 204 217 226 235 244 250 261 270 275 278 280
335 340 342 342 337 329 322 309 291 283 270 260 259 251 246 244 235 231 223 212 218 235 237 215 203 214 182 175 178 177 179 194 203 212 220 228 239 247 256 265 269 272 276
0 3 6 5 4 2 356 353 347 338 339 335 323 305 285 294 270 248 239 230 222 232 240 189 178 148 170 171 178 173 180 194 205 211 219 228 239 248 255 261 265 270 272
17 18 17 20 21 19 16 21 22 21 28 25 23 35 35 32 28 19 7 255 233 217 233 181 111 107 142 160 159 156 170 186 203 216 226 235 242 250 257 262 266 268 270
26 29 31 34 32 29 26 30 34 36 40 40 37 45 42 44 45 34 37 34 25 47 187 191 134 127 136 158 141 147 162 177 189 216 233 244 252 258 263 265 267 269 270
36 37 40 40 36 32 31 34 40 44 44 44 43 45 38 43 44 37 42 43 33 37 58 120 123 106 104 138 132 140 158 160 193 224 244 255 261 265 268 268 269 270 271
44 42 43 43 41 40 38 37 44 49 50 47 46 45 40 41 45 44 46 43 42 47 57 85 97 102 104 104 120 134 152 155 207 234 251 260 264 269 272 275 276 277 277
50 46 47 44 41 44 45 47 48 53 51 50 47 43 42 47 53 59 63 54 51 52 55 61 66 72 84 97 120 128 157 130 228 237 252 262 270 274 277 278 277 276 273
53 53 51 48 47 49 53 57 61 54 51 49 45 38 36 38 44 51 60 60 59 57 50 46 49 60 67 73 92 116 123 120 268 237 217 259 253 263 265 265 268 268 266
55 54 50 48 49 52 56 59 64 62 57 50 45 40 40 37 40 37 43 45 43 46 49 61 63 55 57 96 125 119 159 187 224 236 232 273 250 260 264 266 271 270 268
60 58 52 44 42 52 60 64 67 58 54 45 42 41 38 20 28 46 41 36 29 23 31 61 108 155 176 182 173 178 194 216 254 247 201 260 271 263 269 271 276 273 267
69 59 51 45 40 37 57 64 67 50 47 31 22 26 30 8 23 38 44 30 20 6 21 30 27 347 313 290 241 169 179 216 292 276 213 228 282 294 285 282 287 277 269
88 78 58 39 31 16 47 60 66 55 43 21 10 5 8 11 13 23 53 34 3 334 347 355 355 349 345 333 321 249 185 190 222 277 264 225 274 327 313 290 267 271 276
Height
1560 1562 1563 1564 1564 1565 1566 1566 1567 1567 1567 1567 1568 1567 1567 1566 1566 1565 1565 1565 1564 1564 1563 1562 1561 1560 1559 1559 1558 1558 1558 1557 1557 1557 1557 1557 1557 1557 1556 1556 1556 1556 1556
1558 1559 1560 1560 1561 1562 1563 1564 1564 1564 1564 1564 1564 1564 1564 1564 1563 1563 1563 1562 1562 1561 1561 1560 1559 1558 1558 1557 1557 1557 1557 1556 1556 1556 1556 1556 1556 1556 1556 1555 1555 1555 1555
1556 1556 1557 1557 1558 1559 1560 1560 1560 1560 1560 1560 1560 1560 1561 1561 1560 1560 1560 1559 1559 1559 1558 1558 1557 1556 1556 1555 1555 1555 1555 1555 1555 1555 1555 1555 1555 1555 1555 1554 1554 1554 1554
1553 1554 1554 1554 1555 1556 1556 1556 1556 1556 1556 1556 1556 1556 1557 1557 1557 1557 1556 1555 1555 1555 1555 1555 1554 1554 1554 1553 1553 1553 1553 1553 1553 1553 1553 1553 1553 1553 1553 1553 1553 1553 1553
1550 1550 1550 1551 1552 1552 1552 1552 1552 1552 1552 1552 1552 1552 1553 1552 1553 1553 1552 1551 1551 1551 1552 1552 1551 1551 1551 1551 1551 1551 1551 1551 1551 1551 1551 1551 1552 1552 1552 1552 1551 1551 1551
1546 1546 1546 1547 1547 1547 1547 1547 1547 1548 1548 1548 1548 1548 1548 1548 1547 1547 1547 1547 1547 1547 1547 1547 1548 1548 1548 1548 1548 1548 1548 1548 1548 1549 1549 1549 1549 1549 1549 1549 1549 1549 1549
1541 1541 1541 1542 1542 1542 1542 1543 1543 1543 1543 1543 1543 1542 1542 1542 1541 1541 1541 1541 1541 1541 1541 1542 1542 1543 1543 1544 1544 1545 1545 1545 1546 1546 1546 1546 1546 1547 1547 1547 1547 1547 1547
1536 1536 1536 1536 1536 1536 1536 1537 1537 1536 1536 1537 1537 1536 1535 1535 1533 1534 1534 1534 1534 1535 1535 1535 1536 1537 1539 1539 1540 1540 1541 1542 1542 1542 1543 1543 1543 1543 1543 1544 1544 1544 1544
1529 1529 1529 1530 1530 1530 1529 1530 1530 1530 1529 1530 1530 1531 1528 1525 1527 1526 1526 1526 1526 1527 1527 1528 1529 1530 1532 1533 1535 1535 1537 1537 1538 1539 1539 1539 1539 1540 1540 1540 1540 1541 1540
1522 1522 1522 1522 1522 1522 1522 1523 1523 1523 1523 1522 1522 1522 1522 1521 1521 1519 1519 1519 1519 1519 1520 1521 1521 1523 1524 1526 1528 1529 1531 1532 1533 1534 1535 1535 1536 1536 1536 1536 1536 1536 1536
1515 1515 1515 1515 1515 1515 1515 1515 1515 1515 1515 1515 1514 1514 1514 1514 1513 1513 1511 1511 1511 1511 1512 1513 1513 1514 1516 1517 1519 1522 1523 1525 1527 1529 1530 1531 1531 1532 1532 1532 1532 1532 1531
1509 1508 1508 1508 1507 1507 1507 1508 1508 1508 1508 1507 1507 1507 1506 1505 1504 1505 1504 1502 1503 1504 1504 1504 1505 1505 1507 1508 1510 1513 1515 1517 1519 1522 1524 1526 1526 1527 1527 1527 1527 1526 1526
1502 1502 1501 1501 1500 1500 1500 1500 1500 1500 1500 1500 1500 1499 1498 1498 1498 1497 1496 1495 1494 1494 1495 1495 1496 1497 1497 1499 1501 1503 1505 1507 1510 1512 1515 1518 1519 1519 1519 1519 1520 1519 1519
1496 1496 1495 1494 1494 1493 1493 1493 1493 1493 1493 1492 1492 1492 1491 1490 1490 1489 1489 1488 1486 1486 1485 1486 1487 1488 1488 1489 1492 1494 1496 1498 1501 1503 1506 1508 1510 1511 1511 1512 1512 1512 1511
1492 1491 1490 1489 1488 1488 1487 1486 1486 1486 1486 1485 1485 1485 1484 1483 1483 1482 1481 1481 1482 1479 1477 1478 1479 1479 1480 1481 1483 1485 1488 1490 1493 1496 1498 1499 1501 1503 1503 1504 1504 1504 1503
1488 1487 1486 1485 1484 1483 1482 1481 1480 1480 1479 1479 1479 1478 1477 1476 1476 1475 1475 1474 1474 1474 1471 1471 1472 1472 1473 1474 1476 1478 1481 1484 1487 1489 1491 1493 1494 1495 1496 1497 1496 1496 1496
1484 1483 1482 1481 1480 1478 1478 1477 1476 1475 1474 1474 1473 1472 1471 1471 1470 1469 1469 1468 1467 1467 1466 1465 1466 1466 1467 1469 1470 1472 1475 1478 1480 1483 1485 1486 1487 1488 1489 1489 1489 1488 1488
1481 1480 1479 1478 1476 1475 1474 1473 1472 1472 1471 1469 1468 1467 1466 1466 1465 1464 1463 1462 1462 1462 1461 1461 1461 1461 1463 1464 1466 1468 1470 1472 1475 1477 1478 1480 1480 1481 1482 1482 1481 1480 1480
1479 1478 1477 1475 1474 1473 1472 1471 1470 1469 1468 1466 1465 1464 1463 1462 1461 1460 1459 1458 1458 1457 1457 1457 1457 1458 1460 1461 1462 1464 1466 1468 1469 1470 1471 1473 1473 1474 1474 1474 1473 1473 1472
1477 1476 1475 1474 1472 1471 1470 1469 1467 1466 1465 1464 1463 1462 1461 1460 1459 1458 1457 1456 1455 1455 1455 1455 1455 1456 1457 1458 1459 1461 1462 1463 1464 1465 1465 1466 1466 1466 1466 1466 1466 1465 1464
1476 1475 1474 1472 1471 1470 1469 1467 1466 1465 1464 1463 1461 1460 1459 1459 1458 1457 1456 1455 1454 1454 1454 1454 1454 1454 1455 1455 1456 1457 1458 1458 1459 1459 1459 1460 1459 1459 1459 1459 1458 1458 1458
1475 1474 1473 1472 1471 1469 1469 1467 1466 1465 1464 1463 1461 1460 1459 1459 1458 1457 1456 1455 1454 1454 1453 1453 1452 1453 1453 1453 1453 1454 1454 1454 1455 1455 1454 1454 1454 1453 1453 1452 1452 1451 1451
1475 1474 1473 1472 1471 1470 1469 1468 1467 1466 1464 1463 1462 1461 1460 1459 1458 1457 1455 1454 1453 1452 1452 1451 1451 1451 1451 1450 1450 1450 1450 1450 1450 1450 1449 1447 1448 1447 1447 1446 1445 1445 1445
1476 1475 1474 1473 1472 1471 1470 1469 1468 1466 1465 1464 1462 1461 1460 1458 1457 1455 1454 1453 1452 1450 1449 1449 1448 1448 1448 1447 1447 1447 1447 1446 1446 1445 1444 1442 1442 1442 1441 1440 1440 1440 1440
1477 1476 1475 1474 1473 1472 1471 1469 1468 1466 1465 1463 1462 1460 1459 1457 1455 1453 1452 1451 1450 1448 1447 1446 1446 1445 1445 1444 1444 1443 1443 1442 1441 1441 1441 1439 1438 1437 1436 1435 1435 1435 1435
1478 1477 1476 1475 1474 1472 1471 1469 1468 1466 1464 1463 1461 1459 1457 1455 1454 1452 1450 1449 1447 1446 1445 1444 1443 1442 1442 1441 1441 1440 1440 1439 1438 1438 1437 1436 1435 1433 1431 1430 1430 1430 1430